Flag for Russia Weather past 2 weeks in Saint-Petersburg, Russia

Now
72 °F

Overcast.


Feels Like: 75 °F
Forecast: 68 / 77 °F
Wind: 1 mph from North

Location: St. Petersburg

Current Time: Aug 1, 2014 at 12:25:29 AM

Latest Report: Jul 31, 2014 at 11:30 PM


Visibility: N/A

Pressure: 29.77 "Hg

Humidity: 69%

Dew point: 61 °F

Location of Saint-PetersburgLocation

Historic Weather in Saint-Petersburg — Graph

°F

Saint-Petersburg temperature yesterday

Maximum temperature yesterday: 91 °F (at 3:30 PM)
Minimum temperature yesterday: 66 °F (at 5:00 AM)
Average temperature yesterday: 79 °F

Past Weeks' High & Low Weather Summary

 TemperatureHumidityPressure
High91 °F (Jul 31, 3:30 PM)100% (Jul 20, 6:00 AM)30.21 "Hg (Jul 20, 6:00 AM)
Low54 °F (Jul 25, 4:00 AM)27% (Jul 31, 4:30 PM)29.74 "Hg (Jul 31, 6:00 PM)
Average72 °F64%30.05 "Hg
* Reported Jul 16 11:00 PM — Jul 31 11:00 PM, Saint-Petersburg, Weather by CustomWeather, © 2014

Note: Actual official high and low records may vary slightly from our data, if they occured in-between our weather recording intervals... More about our weather records

Advertising

Saint-Petersburg weather history for previous 24 hours

 ConditionsComfort  
Time TempWeatherWind HumidityBarometerVisibility
11:00 PM
Jul 31
73 °FCloudy.No wind65%29.77 "HgN/A
10:30 PM75 °FCloudy.6 mph61%29.77 "HgN/A
10:00 PM77 °FCloudy.8 mph54%29.77 "HgN/A
9:30 PM79 °FCloudy.3 mph45%29.74 "HgN/A
9:00 PM81 °FCloudy.6 mph42%29.74 "HgN/A
8:30 PM82 °FBroken clouds.6 mph37%29.74 "HgN/A
8:00 PM86 °FPassing clouds.8 mph33%29.74 "HgN/A
7:30 PM88 °FPassing clouds.8 mph31%29.74 "HgN/A
7:00 PM88 °FPassing clouds.10 mph33%29.74 "HgN/A
6:30 PM88 °FPassing clouds.8 mph33%29.74 "HgN/A
6:00 PM90 °FPassing clouds.8 mph31%29.74 "HgN/A
5:30 PM90 °FSunny.8 mph31%29.77 "Hg10 mi
5:00 PM91 °FPassing clouds.10 mph28%29.77 "HgN/A
4:30 PM90 °FPassing clouds.8 mph27%29.77 "HgN/A
4:00 PM90 °FPassing clouds.8 mph29%29.77 "HgN/A
3:30 PM91 °FPassing clouds.8 mph28%29.77 "HgN/A
3:00 PM90 °FPassing clouds.8 mph31%29.77 "HgN/A
2:30 PM90 °FPassing clouds.8 mph31%29.80 "HgN/A
2:00 PM90 °FPassing clouds.10 mph36%29.80 "HgN/A
1:30 PM90 °FSunny.8 mph41%29.80 "Hg10 mi
1:00 PM90 °FPassing clouds.8 mph41%29.83 "HgN/A
12:30 PM88 °FPassing clouds.8 mph46%29.83 "HgN/A
12:00 PM86 °FPassing clouds.6 mph49%29.83 "HgN/A
11:30 AM84 °FPassing clouds.6 mph51%29.83 "HgN/A
11:00 AM82 °FPassing clouds.6 mph58%29.83 "HgN/A
10:30 AM81 °FPassing clouds.6 mph58%29.83 "HgN/A
10:00 AM79 °FPassing clouds.3 mph65%29.83 "HgN/A
9:30 AM75 °FSunny.1 mph74%29.83 "Hg10 mi
9:00 AM75 °FSunny.3 mph74%29.83 "Hg10 mi
8:30 AM72 °FPassing clouds.3 mph83%29.83 "HgN/A
8:00 AM72 °FSunny.1 mph83%29.83 "Hg10 mi
7:30 AM70 °FPassing clouds.3 mph88%29.83 "HgN/A
6:30 AM66 °FPassing clouds.3 mph94%29.86 "HgN/A
6:00 AM66 °FPassing clouds.3 mph94%29.86 "HgN/A
5:30 AM66 °FPassing clouds.3 mph94%29.86 "HgN/A
5:00 AM66 °FPassing clouds.3 mph88%29.86 "HgN/A
4:30 AM68 °FPassing clouds.3 mph88%29.86 "HgN/A
4:00 AM68 °FClear.1 mph88%29.86 "Hg10 mi
3:30 AM68 °FPassing clouds.3 mph88%29.86 "HgN/A
3:00 AM68 °FPassing clouds.3 mph88%29.86 "HgN/A
2:30 AM68 °FPassing clouds.3 mph88%29.86 "HgN/A
2:00 AM68 °FPassing clouds.3 mph88%29.86 "HgN/A
1:30 AM68 °FClear.3 mph88%29.86 "Hg10 mi
1:00 AM68 °FPassing clouds.6 mph88%29.86 "HgN/A
12:30 AM68 °FClear.6 mph88%29.86 "Hg10 mi
12:00 AM70 °FClear.3 mph83%29.86 "Hg10 mi
Weather by CustomWeather, © 2014

See weather overviewHow to use our weather pages